Location: Presov
(49.0000°N, 21.2500°E)
Time: 22:21:42
(UTC+02:00)

A-11 Canister half - All Passes

Search period start: 17 April 2021 00:00
Search period end: 27 April 2021 00:00
Orbit: 1515 x 1685 km, 47.2° (Epoch: 17 April)

Date Brightness Start Highest point End Pass type
(mag) Time Alt. Az. Time Alt. Az. Time Alt. Az.
17 Apr - 01:46:37 10° W 01:56:20 81° S 02:06:23 10° E visible
17 Apr - 03:51:27 10° WNW 04:00:57 55° SSW 04:10:41 10° SE visible
17 Apr - 05:57:16 10° W 06:04:24 23° SW 06:11:38 10° S daylight
17 Apr - 21:16:42 10° SSW 21:24:45 34° SE 21:33:02 10° ENE visible
17 Apr - 23:19:11 10° WSW 23:28:34 69° SSE 23:38:21 10° E visible
18 Apr - 01:23:43 10° W 01:33:23 81° S 01:43:25 10° E visible
18 Apr - 03:28:32 10° WNW 03:38:02 57° SSW 03:47:50 10° SE visible
18 Apr - 05:34:12 10° W 05:41:34 24° SW 05:49:04 10° S daylight
18 Apr - 20:54:03 10° SSW 21:01:55 32° SE 21:10:01 10° E visible
18 Apr - 22:56:20 10° WSW 23:05:41 67° SSE 23:15:23 10° E visible
19 Apr - 01:00:48 10° W 01:10:27 82° S 01:20:28 10° E visible
19 Apr - 03:05:37 10° WNW 03:15:08 59° SSW 03:24:56 10° SE visible
19 Apr - 05:11:09 10° W 05:18:44 26° SW 05:26:27 10° S daylight
19 Apr - 20:31:25 10° SSW 20:39:06 30° SE 20:47:00 10° E visible
19 Apr - 22:33:30 10° SW 22:42:47 65° SSE 22:52:26 10° E visible
20 Apr - 00:37:54 10° W 00:47:31 82° S 00:57:30 10° E visible
20 Apr - 02:42:42 10° WNW 02:52:14 61° SSW 03:02:03 10° SE visible
20 Apr - 04:48:07 10° W 04:55:54 27° SW 05:03:50 10° S visible
20 Apr - 20:08:48 10° S 20:16:18 28° SE 20:23:58 10° E visible
20 Apr - 22:10:39 10° SW 22:19:53 63° SSE 22:29:28 10° ENE visible
21 Apr - 00:15:00 10° W 00:24:34 82° S 00:34:32 10° E visible
21 Apr - 02:19:47 10° WNW 02:29:19 63° SSW 02:39:10 10° SE visible
21 Apr - 04:25:07 10° W 04:33:03 29° SW 04:41:11 10° S visible
21 Apr - 19:46:13 10° S 19:53:29 27° SE 20:00:56 10° E daylight
21 Apr - 21:47:49 10° SW 21:57:00 61° SSE 22:06:31 10° ENE visible
21 Apr - 23:52:06 10° W 00:01:39 82° S 00:11:34 10° E visible
22 Apr - 01:56:52 10° W 02:06:25 65° SSW 02:16:16 10° SE visible
22 Apr - 04:02:07 10° W 04:10:13 30° SW 04:18:31 10° SSE visible
22 Apr - 19:23:39 10° S 19:30:41 25° SE 19:37:52 10° E daylight
22 Apr - 21:25:01 10° SW 21:34:07 59° SSE 21:43:33 10° ENE visible
22 Apr - 23:29:12 10° W 23:38:43 82° S 23:48:36 10° E visible
23 Apr - 01:33:58 10° W 01:43:30 66° SSW 01:53:22 10° ESE visible
23 Apr - 03:39:07 10° W 03:47:22 32° SW 03:55:49 10° SSE visible
23 Apr - 19:01:06 10° S 19:07:53 23° SE 19:14:48 10° E daylight
23 Apr - 21:02:11 10° SW 21:11:14 57° SSE 21:20:36 10° ENE visible
23 Apr - 23:06:18 10° W 23:15:47 81° S 23:25:39 10° E visible
24 Apr - 01:11:04 10° W 01:20:35 68° SSW 01:30:27 10° ESE visible
24 Apr - 03:16:09 10° W 03:24:32 34° SW 03:33:07 10° SSE visible
24 Apr - 18:38:36 10° S 18:45:06 22° SE 18:51:42 10° E daylight
24 Apr - 20:39:23 10° SW 20:48:22 55° SSE 20:57:39 10° ENE visible
24 Apr - 22:43:25 10° W 22:52:52 81° S 23:02:42 10° E visible
25 Apr - 00:48:10 10° W 00:57:40 69° SSW 01:07:32 10° ESE visible
25 Apr - 02:53:11 10° WNW 03:01:40 35° SW 03:10:23 10° SSE visible
25 Apr - 18:16:07 10° S 18:22:19 20° SE 18:28:35 10° E daylight
25 Apr - 20:16:35 10° SW 20:25:30 53° SSE 20:34:42 10° ENE visible
25 Apr - 22:20:31 10° WSW 22:29:57 80° S 22:39:44 10° E visible
26 Apr - 00:25:16 10° W 00:34:45 71° SSW 00:44:36 10° ESE visible
26 Apr - 02:30:14 10° WNW 02:38:49 37° SW 02:47:38 10° SSE visible
26 Apr - 04:40:51 10° WSW 04:41:32 10° WSW 04:42:14 10° SW visible
26 Apr - 17:53:41 10° SSE 17:59:32 19° SE 18:05:27 10° E daylight
26 Apr - 19:53:48 10° SW 20:02:39 51° SSE 20:11:45 10° ENE daylight
26 Apr - 21:57:38 10° WSW 22:07:02 80° S 22:16:47 10° E visible
